[Date Prev][Date Next][Thread Prev][Thread Next] - [Date Index][Thread Index][Author Index]

2 Line ISS Keps 8-4



ISS
1 25544U 98067A   05216.29511330 -.00028664  00000-0 -21516-3 0   715
2 25544 051.6483 014.5662 0002212 213.6399 215.0698 15.71509758383253
----
Via the sarex mailing list at AMSAT.ORG courtesy of AMSAT-NA.
To unsubscribe, send "unsubscribe sarex" to Majordomo@amsat.org



AMSAT Top AMSAT Home